Location: Cheching
(60.0667°N, 164.2167°W)
Time: 07:51:18
(UTC+00:00)

XW-2D - Pass Details

Date: 18 January 2021
Orbit: 505 x 525 km, 97.5° (Epoch: 09 March)

Event Time Altitude Azimuth Distance (km) Brightness Sun altitude
Rises 16:20:59 0° 21° (NNE) 2,668 ? -23.3°
Reaches altitude 10° 16:23:19 10° 33° (NNE) 1,777 ? -23.0°
Maximum altitude 16:26:40 28° 94° (E) 1,014 ? -22.6°
Drops below altitude 10° 16:30:00 10° 155° (SSE) 1,771 ? -22.2°
Sets 16:32:19 0° 167° (SSE) 2,656 ? -21.9°
